Starlink 3572

operational
NORAD ID: 51879 Int'l Des: 2022-022 Owner: SPXS Country: US Constellation: starlink
LEOCIRCULAR

Starlink 3572について

説明を読み込み中...

リアルタイム位置

3D地球を読み込み中...

次回通過

高度履歴

Altitude vs Time

uPlot chart will show altitude changes over time

軌道要素

1 51879U 22022AD 25353.23299980 .00000145 00000-0 27224-4 0 9999
2 51879 53.2187 0.3046 0001359 92.8613 267.2535 15.08838345211108
Epoch: Dec 19, 2025 • Age: 25 hours

現在のステータス

高度 540.0 km
速度 7.59 km/s
衛星直下点 4.21°N, 9.67°W
打ち上げ日 Mar 3, 2022
運用期間 3.7 years
タイプ internet

技術仕様

分類 Payload
質量 297.00 kg
乾燥質量 275.00 kg
総質量 297.00 kg
長さ 0.20 m
直径 2.80 m
スパン 9.00 m
形状 Box + pan
製造者 SPXS
バスタイプ Starlink
フェーズステータス In Orbit
所有者/国 SPXS/US

大規模コンステレーション

Loading constellations...